2024-173F

Last updated on Fri Oct 25 2024 00:02:04 GMT+0000 (Coordinated Universal Time)

1 61232U 24173F 24298.51855477 .00045420 00000+0 17161-2 0 9990 2 61232 97.4033 11.0267 0012620 170.4913 189.6567 15.26772744 4589
UTC large
Height (km)
Speed (km/s)
/
Latitude / Longitude
Inclination (degrees)
Orbital Period (minutes)
Azimuth
Elevation
Range (km)
Doppler Factor

Next 0 passes for location: London (51.5072 / 0.1276)

Sorry there are no passes over London.